This is the latest recevied weather packets stored in our database for station/object EB5AGF-13. If no packets are shown the sender has not sent any weather packets the latest 10 day(s).
| Time | Temp. | Humidity | Pressure | Rain* | Wind** | Luminosity | Snow |
|---|---|---|---|---|---|---|---|
| 1777798314 | 20° C | 80% | 1012.6 hPa | 0 mm | 0.45 m/s, 322° | 189 W/m² | - |
| 1777798011 | 20° C | 80% | 1012.7 hPa | 0 mm | 0.45 m/s, 237° | 173 W/m² | - |
| 1777797706 | 19.44° C | 81% | 1012.9 hPa | 0 mm | 0.45 m/s, 307° | 168 W/m² | - |
| 1777797402 | 19.44° C | 82% | 1012.8 hPa | 0 mm | 0.45 m/s, 263° | 165 W/m² | - |
| 1777797098 | 19.44° C | 83% | 1012.7 hPa | 0 mm | 0.45 m/s, 268° | 154 W/m² | - |
| 1777796793 | 19.44° C | 83% | 1012.9 hPa | 0 mm | 0 m/s | 152 W/m² | - |
| 1777796493 | 18.89° C | 84% | 1012.9 hPa | 0 mm | 0 m/s | 128 W/m² | - |
| 1777796192 | 18.89° C | 85% | 1012.8 hPa | 0 mm | 0.45 m/s, 276° | 98 W/m² | - |
| 1777795892 | 18.89° C | 85% | 1013 hPa | 0 mm | 0 m/s | 65 W/m² | - |
| 1777795592 | 18.89° C | 86% | 1013 hPa | 0 mm | 0.45 m/s, 0° | 52 W/m² | - |
| 1777795292 | 18.33° C | 86% | 1013 hPa | 0 mm | 0 m/s | 63 W/m² | - |
| 1777794992 | 18.33° C | 86% | 1012.8 hPa | 0 mm | 0 m/s | 49 W/m² | - |
| 1777794692 | 18.33° C | 86% | 1012.6 hPa | 0 mm | 0.45 m/s, 0° | 47 W/m² | - |
| 1777794392 | 18.33° C | 87% | 1012.5 hPa | 0 mm | 0 m/s | 42 W/m² | - |
| 1777794090 | 18.33° C | 87% | 1012.9 hPa | 0 mm | 0 m/s | 36 W/m² | - |
| 1777793786 | 18.33° C | 87% | 1012.8 hPa | 0 mm | 0.45 m/s, 354° | 40 W/m² | - |
| 1777793482 | 18.33° C | 87% | 1013.1 hPa | 0 mm | 0.45 m/s, 315° | 40 W/m² | - |
| 1777793178 | 18.33° C | 87% | 1013.1 hPa | 0 mm | 0.45 m/s, 298° | 31 W/m² | - |
| 1777792874 | 18.33° C | 87% | 1013.2 hPa | 0 mm | 0 m/s | 36 W/m² | - |
| 1777792570 | 18.33° C | 88% | 1013.2 hPa | 0 mm | 0.45 m/s, 284° | 46 W/m² | - |
| 1777792267 | 17.78° C | 88% | 1013.1 hPa | 0 mm | 0 m/s | 48 W/m² | - |
| 1777791962 | 17.78° C | 88% | 1012.9 hPa | 0 mm | 0 m/s | 36 W/m² | - |
| 1777791658 | 17.78° C | 88% | 1012.9 hPa | 0 mm | 0.45 m/s, 310° | 41 W/m² | - |
| 1777791354 | 17.78° C | 88% | 1012.4 hPa | 0 mm | 0 m/s | 54 W/m² | - |
| 1777791051 | 17.78° C | 88% | 1012.8 hPa | 0 mm | 0.89 m/s, 4° | 51 W/m² | - |
* Rain latest hour (hover to see other rain measurements)
** Current wind speed in m/s (hover to see current wind gust speed)